FENGYUN 1C DEB

Satellite information

Favourite Embed

Satellite Type and Status

DEBRISIN ORBIT

Key statistics

Satellite FENGYUN 1C DEB at a glance.

Uptime

9715

Days in orbit

Revolutions

≈ 14.5

Per day

Orbit

SSO

Sun Synchronous Orbit

Inclination

99.2

Latest

Satellite identification and parameters

Extended collection of information and parameters for FENGYUN 1C DEB.

Object identification

Identified? True

Debris? True

Object name: FENGYUN 1C DEB

International designator: 1999-025BUF

Object number (NORAD): 31443

Object ID (CCSDS): 31443

Country: PEOPLES REPUBLIC OF CHINA (PRC)

Current information (Y/N): Y

RCS size: SMALL

Orbital parameters

Period: 99.399 minutes

Inclination: 99.2111 deg

SMA: 7108.034 km

Apoapsis: 866.194 km

Periapsis: 593.604 km

RAAN: 87.0793 deg

Eccentricy: 0.01917479

Argument of periapsis: 95.8478 deg

Mean anomaly: 266.4605 deg

Mean motion: 14.48700333 rev/day

Mean motion (dot): 0.00010609 rev/day2

B* drag term: 0.0022376599 1/REarth

Two-line elements (TLE)

Creation date: Dec. 14, 2025, 3:07 a.m.

Reference frame: TEME

Reference center: EARTH

Epoch: Dec. 13, 2025, 12:43 p.m. UTC

TLE line 0: 0 FENGYUN 1C DEB

TLE line 1: 1 31443U 99025BUF 25347.52988784 .00010609 00000-0 22377-2 0 9991

TLE line 2: 2 31443 99.2111 87.0793 0191748 95.8478 266.4605 14.48700333669536

Live tracking on map

Real-time ground track for satellite FENGYUN 1C DEB.

In-orbit conjunctions

A list of the most updated potential collisions computed for object FENGYUN 1C DEB.

Target Orbit TCA Probability of collision Miss distance Type
ORBCOMM FM 40 LEO 2025-01-28 09:42:18 0.0002584036 364.0 (m) PAYLOAD
PICOSAT 1&2 (TETHERED) SSO 2024-11-07 05:25:49 0.0001002851 882.0 (m) PAYLOAD
SL-14 R/B LEO 2024-10-06 15:46:39 0.0001576827 327.0 (m) ROCKET BODY

Associated space launch

Chinese polar orbiting meteorological satellite

FENGYUN 1C DEB was lifted into orbit during the mission ‘Long March 4B | Feng Yun 1C’, on board a Long March 4B space rocket.

The launch took place on May 10, 1999, 1:33 a.m. from Launch Complex 7.

For more information about the launch, click the button.

Launch to space Long March 4B | Feng Yun 1C
Long March 4B | Feng Yun 1C

Agency: N/A

Status: Launch Successful

Launch date: May 10, 1999, 1:33 a.m. UTC

Rocket: Long March 4B

Launch pad: Launch Complex 7

Location: Taiyuan Satellite Launch Center, People's Republic of China

...

Latest news about this satellite

There are no fresh news available about this satellite. Check back as we update our databases every day.


Newsletter sign-up

Weekly statistics, charts and insights to help you stay on top of the space industry.